This is the latest recevied weather packets stored in our database for station/object KN6ZYR. If no packets are shown the sender has not sent any weather packets the latest 10 day(s).
| Time | Temp. | Humidity | Pressure | Rain* | Wind** | Luminosity | Snow |
|---|---|---|---|---|---|---|---|
| 1777684409 | 23.89° C | 12% | 1018.5 hPa | 0 mm | - | 80 W/m² | - |
| 1777684107 | 24.44° C | 12% | 1018.7 hPa | 0 mm | - | 80 W/m² | - |
| 1777683803 | 23.89° C | 11% | 1018.7 hPa | 0 mm | - | 78 W/m² | - |
| 1777683500 | 24.44° C | 13% | 1018.8 hPa | 0 mm | - | 76 W/m² | - |
| 1777683198 | 24.44° C | 11% | 1018.8 hPa | 0 mm | - | 75 W/m² | - |
| 1777682895 | 24.44° C | 11% | 1018.8 hPa | 0 mm | - | 79 W/m² | - |
| 1777682591 | 24.44° C | 12% | 1018.4 hPa | 0 mm | - | 85 W/m² | - |
| 1777682289 | 24.44° C | 11% | 1018.5 hPa | 0 mm | - | 75 W/m² | - |
| 1777681986 | 24.44° C | 12% | 1018.9 hPa | 0 mm | - | 89 W/m² | - |
| 1777681682 | 25° C | 12% | 1018.8 hPa | 0 mm | - | 107 W/m² | - |
| 1777681380 | 25° C | 12% | 1018.5 hPa | 0 mm | - | 82 W/m² | - |
| 1777681077 | 25° C | 12% | 1018.8 hPa | 0 mm | - | 84 W/m² | - |
| 1777680775 | 25° C | 12% | 1019 hPa | 0 mm | - | 117 W/m² | - |
| 1777680471 | 26.11° C | 11% | 1019 hPa | 0 mm | - | 292 W/m² | - |
| 1777680170 | 25.56° C | 11% | 1018.9 hPa | 0 mm | - | 308 W/m² | - |
| 1777679864 | 25° C | 11% | 1019.1 hPa | 0 mm | - | 302 W/m² | - |
| 1777679561 | 25.56° C | 11% | 1019 hPa | 0 mm | - | 331 W/m² | - |
| 1777679257 | 25.56° C | 11% | 1019.1 hPa | 0 mm | - | 338 W/m² | - |
| 1777678953 | 25° C | 11% | 1019 hPa | 0 mm | - | 365 W/m² | - |
| 1777678652 | 25° C | 11% | 1019.2 hPa | 0 mm | - | 339 W/m² | - |
| 1777678350 | 25.56° C | 12% | 1019.2 hPa | 0 mm | - | 338 W/m² | - |
| 1777678050 | 25° C | 11% | 1019.2 hPa | 0 mm | - | 408 W/m² | - |
| 1777677747 | 25.56° C | 11% | 1019.2 hPa | 0 mm | - | 439 W/m² | - |
| 1777677445 | 25.56° C | 11% | 1019.2 hPa | 0 mm | - | 457 W/m² | - |
| 1777677143 | 25.56° C | 11% | 1019.3 hPa | 0 mm | - | 438 W/m² | - |
* Rain latest hour (hover to see other rain measurements)
** Current wind speed in m/s (hover to see current wind gust speed)